GW4397 Weather Reports


time (UTC)temp
C
wind
direction
speed
KPH
gust
KPH
rain 1hr
cm
rain 24hr
cm
rain mn
cm
humidity
%
barometer
mb
20260906231548 15 360 3.2 9.7 0.00 0.00 0.00 80 1017.6
20260906230047 16 360 1.6 8.0 0.00 0.00 0.00 80 1017.8
20260906224549 15 360 3.2 12.9 0.00 0.00 0.00 82 1017.8
20260906223050 15 360 3.2 12.9 0.00 0.00 0.00 79 1017.8
20260906221550 15 360 3.2 8.0 0.00 0.00 0.00 82 1018.0
20260906220056 14 319 3.2 8.0 0.00 0.00 0.00 84 1018.0
20260906214549 13 277 1.6 8.0 0.00 0.00 0.00 85 1017.9
20260906213048 13 198 4.8 9.7 0.00 0.00 0.00 85 1017.9
20260906211557 13 206 4.8 8.0 0.00 0.00 0.00 85 1018.1
20260906210056 13 176 3.2 8.0 0.00 0.00 0.00 86 1018.2
20260906204553 13 209 1.6 4.8 0.00 0.00 0.00 86 1018.1
20260906203058 13 214 3.2 4.8 0.00 0.00 0.00 86 1018.1
20260906201558 13 0 0.0 4.8 0.00 0.00 0.00 86 1018.1
20260906200053 13 288 1.6 6.4 0.00 0.00 0.00 87 1018.3
20260906194618 13 288 1.6 6.4 0.00 0.00 0.00 87 1018.3
20260906193103 13 231 1.6 4.8 0.00 0.00 0.00 87 1018.3
20260906191602 13 254 1.6 4.8 0.00 0.00 0.00 86 1018.5
20260906190052 13 0 0.0 0.0 0.00 0.00 0.00 85 1018.5
20260906184550 13 0 3.2 6.4 0.00 0.00 0.00 85 1018.5
20260906183045 13 0 0.0 3.2 0.00 0.00 0.00 85 1018.5
20260906181610 13 0 0.0 3.2 0.00 0.00 0.00 85 1018.5
20260906180059 13 0 0.0 1.6 0.00 0.00 0.00 87 1018.5
20260906174553 13 0 0.0 0.0 0.00 0.00 0.00 87 1018.6
20260906173049 12 0 0.0 0.0 0.00 0.00 0.00 87 1018.8
20260906171602 12 0 0.0 0.0 0.00 0.00 0.00 88 1018.8
20260906170108 12 0 0.0 0.0 0.00 0.00 0.00 89 1018.7
20260906164554 12 0 0.0 0.0 0.00 0.00 0.00 89 1018.7
20260906163052 12 0 0.0 0.0 0.00 0.00 0.00 89 1018.7
20260906161547 12 0 0.0 0.0 0.00 0.00 0.00 89 1018.8
20260906160051 12 0 0.0 0.0 0.00 0.00 0.00 89 1018.7
20260906154547 12 0 0.0 3.2 0.00 0.00 0.00 90 1018.5
20260906153047 12 0 0.0 0.0 0.00 0.00 0.00 90 1018.5
20260906151556 11 0 0.0 0.0 0.00 0.00 0.00 90 1018.3
20260906150051 11 0 0.0 0.0 0.00 0.00 0.00 90 1018.3
20260906144606 11 0 0.0 0.0 0.00 0.00 0.00 90 1018.5
20260906143050 11 0 0.0 4.8 0.00 0.00 0.00 90 1018.5
20260906141547 11 159 1.6 6.4 0.00 0.00 0.00 90 1018.3
20260906140052 11 0 0.0 0.0 0.00 0.00 0.00 90 1018.2
20260906134551 11 0 0.0 0.0 0.00 0.00 0.00 90 1018.1
20260906133103 11 0 0.0 0.0 0.00 0.00 0.00 90 1018.2
20260906131547 11 0 0.0 0.0 0.00 0.00 0.00 90 1018.1
20260906130058 11 0 0.0 0.0 0.00 0.00 0.00 91 1018.2
20260906124551 11 0 0.0 3.2 0.00 0.00 0.00 91 1018.2
20260906123049 11 0 0.0 0.0 0.00 0.00 0.00 91 1018.1
20260906121547 11 0 0.0 0.0 0.00 0.00 0.00 91 1018.1
20260906120050 11 0 0.0 0.0 0.00 0.00 0.00 91 1017.8
20260906114556 11 0 0.0 0.0 0.00 0.00 0.00 92 1017.7
20260906113047 10 0 0.0 0.0 0.00 0.00 0.00 91 1017.7
20260906111546 10 0 0.0 3.2 0.00 0.00 0.00 90 1017.7
20260906110050 10 0 0.0 3.2 0.00 0.00 0.00 91 1017.6
20260906104607 10 0 0.0 0.0 0.00 0.00 0.00 90 1017.5
20260906103048 11 0 0.0 0.0 0.00 0.00 0.00 90 1017.6
20260906101546 10 0 0.0 0.0 0.00 0.00 0.00 90 1017.5
20260906100051 10 0 0.0 0.0 0.00 0.00 0.00 89 1017.5
20260906094602 10 0 0.0 0.0 0.00 0.00 0.00 89 1017.6
20260906093108 11 0 0.0 0.0 0.00 0.00 0.00 88 1017.4
20260906091554 11 0 0.0 0.0 0.00 0.00 0.00 88 1017.1
20260906090049 10 0 0.0 0.0 0.00 0.00 0.00 88 1017.2
20260906084547 11 0 0.0 3.2 0.00 0.00 0.00 88 1017.2
20260906083054 11 0 0.0 0.0 0.00 0.00 0.00 87 1017.1
20260906081549 11 0 0.0 0.0 0.00 0.00 0.00 85 1017.0
20260906080048 11 0 0.0 0.0 0.00 0.00 0.00 86 1017.0
20260906074548 11 0 0.0 0.0 0.00 0.00 0.00 86 1016.8
20260906073053 11 0 0.0 0.0 0.00 0.00 0.00 86 1016.7
20260906071548 11 0 0.0 0.0 0.00 0.00 0.00 86 1016.7
20260906070057 11 0 0.0 0.0 0.00 0.00 0.00 86 1016.7
20260906064550 11 0 0.0 0.0 0.00 0.00 0.00 87 1016.6
20260906063101 11 0 0.0 0.0 0.00 0.00 0.00 87 1016.6
20260906061554 11 0 0.0 0.0 0.00 0.00 0.00 86 1016.6
20260906060057 12 0 0.0 0.0 0.00 0.00 0.00 84 1016.6
20260906054608 12 0 0.0 0.0 0.00 0.00 0.00 83 1016.6
20260906053047 12 0 0.0 0.0 0.00 0.00 0.00 84 1016.8
20260906051605 12 0 0.0 0.0 0.00 0.00 0.00 83 1016.5
20260906050105 13 0 0.0 0.0 0.00 0.00 0.00 84 1016.2
20260906044556 13 0 0.0 1.6 0.00 0.00 0.00 84 1016.3
20260906043046 13 0 0.0 0.0 0.00 0.00 0.00 83 1016.4
20260906041555 13 0 0.0 0.0 0.00 0.00 0.00 81 1016.5
20260906040100 14 0 0.0 0.0 0.00 0.00 0.00 79 1016.5
20260906034546 15 0 0.0 0.0 0.00 0.00 0.00 78 1016.7
20260906033049 15 0 0.0 0.0 0.00 0.00 0.00 79 1016.8
20260906031555 15 0 0.0 3.2 0.00 0.00 0.00 78 1016.7
20260906030050 16 0 0.0 0.0 0.00 0.00 0.00 72 1016.6
20260906024550 17 0 0.0 3.2 0.00 0.00 0.00 70 1016.4
20260906023047 18 360 1.6 4.8 0.00 0.00 0.00 68 1016.5
20260906021556 18 0 0.0 4.8 0.00 0.00 0.00 64 1016.5
20260906020052 18 192 1.6 8.0 0.00 0.00 0.00 62 1016.5
20260906014618 18 184 3.2 8.0 0.00 0.00 0.00 61 1016.5
20260906013055 18 170 4.8 8.0 0.00 0.00 0.00 60 1016.6
20260906011549 19 211 4.8 8.0 0.00 0.00 0.00 60 1016.5
20260906010050 20 360 4.8 8.0 0.00 0.00 0.00 60 1016.5
20260906004608 20 360 3.2 8.0 0.00 0.00 0.00 61 1016.5
20260906003054 20 184 3.2 8.0 0.00 0.00 0.00 60 1016.4
20260906001557 20 360 4.8 9.7 0.00 0.00 0.00 58 1016.4
20260906000046 20 155 4.8 11.3 0.00 0.00 0.00 60 1016.5
20260905234554 23 147 0.0 4.8 0.00 0.00 0.00 46 1016.4
20260905233048 23 0 0.0 0.0 0.00 0.00 0.00 49 1016.6